Location: Clermont
(50.2608°N, 4.3172°E)
Time: 07:52:20
(UTC+00:00)

Cosmos 1470 Rocket - Pass Details

Date: 13 August 2020
Orbit: 604 x 633 km, 82.5° (Epoch: 26 September)

Event Time Altitude Azimuth Distance (km) Brightness Sun altitude
Exits shadow 21:05:15 - 204° (SSW) 2,623 6.5 -16.3°
Reaches altitude 10° 21:06:52 10° 209° (SSW) 1,987 5.9 -16.5°
Maximum altitude 21:11:08 49° 285° (WNW) 801 4.4 -16.9°
Drops below altitude 10° 21:15:24 10° 1° (N) 1,984 6.9 -17.3°
Sets 21:17:42 0° 7° (N) 2,889 7.7 -17.6°
